Погода в Лопазне

Россия / Брянская область     53°01′33″N   32°37′49″E
темп.,
°C
ветер,
м/с
пор.,
м/с
влажн.,
%
обл.,
%
осадки,
мм/ч
давл.,
гПа
погр.,
м
18 мая, вт
вт1800:00+17юв6149289 0.1 1002421
03:00+16юв5998100 0.1 1002333
06:00+15юв489880 0.0 1003331
09:00+19ююв5881100 0.0 1004705
12:00+19юв6983100 1.8 1003894
15:00+17юв5987100 5.8 1003386
18:00+15юв4891100 0.2 1002280
21:00+15вюв51292100 0.3 1001390
19 мая, ср
ср1900:00+13юв410958 0.0 1002261
03:00+12юв489779 0.0 1002207
06:00+12юв499899 0.0 1003308
09:00+16ююв578235 0.0 1004730
12:00+19ю456539 0.1 10041377
15:00+19юв3466100 1.0 10041058
18:00+15ю3490100 3.5 1004190
21:00+13з2494100 5.3 1005104
20 мая, чт
чт2000:00+13зюз2499100 3.5 1005148
03:00+13ссз1294100 8.2 100449
06:00+12юз3597100 0.1 1003174
09:00+12зюз4798100 3.9 1003427
12:00+11зюз5895100 2.6 1004476
15:00+10зюз61093100 2.9 1006690
18:00+9з71191100 0.1 1008795
21:00+8з71288100 0.1 1009907
21 мая, пт
пт2100:00+9зюз61389100 0.1 10101227
03:00+9зюз7149092 0.1 1011648
06:00+8зюз4995100 0.0 1013358
09:00+12зюз5780100 0.0 1015562
12:00+16з346496 0.1 10151251
15:00+16юз1269100 0.2 1016962
18:00+16св2269100 0.4 1016456
21:00+13всв338398 0.7 101745
22 мая, сб
сб2200:00+12всв2388100 0.0 101747
03:00+11в2293100 0.1 101731
06:00+11св3697100 0.1 1017251
09:00+12св4793100 0.1 1017395
12:00+12св4889100 0.0 1018396
15:00+16ссв457598 0.0 1017831
18:00+17ссв347235 0.0 1017898
21:00+12в359412 0.0 101784